Regional Weather Roundup
Issued by NWS Midland/Odessa, TX

Skip options and go directly to product.
Home | Oldest Version | Previous Version | Current Version | All | Text Only | Save Text | Print | Product List | Glossary On

Skip product version selection by date and time.   
411
ASUS44 KMAF 231310
RWRMAF
MIDLAND AREA WEATHER ROUNDUP
NATIONAL WEATHER SERVICE MIDLAND TX
700 AM CST SUN NOV 23 2014

...IN SOUTHWEST TEXAS AND SOUTHEAST NEW MEXICO...

CITY           SKY/WX    TMP DP  RH WIND       PRES   REMARKS
ALPINE         CLEAR     48  30  49 SW16      29.89F
ANDREWS        FAIR      47  25  42 W10       29.67R
ARTESIA        NOT AVBL
BIG SPRING     CLEAR     46  35  64 S8        29.66S
CARLSBAD       CLEAR     58  17  20 W20G26    29.69R
DRYDEN           N/A     59  37  44 W12       29.72R
FORT STOCKTON  CLEAR     54  29  38 SW15      29.72R
GUAD PASS      CLEAR     45  20  36 SW37G46   29.82R WCI  34
HOBBS          CLEAR     45  21  39 W9        29.71R WCI  40
MARFA          CLEAR     48  28  46 S13G21    29.86F
MIDLAND AIRPK  CLEAR     54  29  38 W12       29.66S
MIDLAND INTL   CLEAR     53  27  36 W20       29.67R
ODESSA         CLEAR     53  24  32 W13       29.68R
PECOS          CLEAR     55  29  36 SW3       29.72R
PRESIDIO       FAIR      49  37  63 NE5       29.86S
SEMINOLE       CLEAR     48  22  36 W14G21    29.69R
SNYDER         CLEAR     43  39  86 S9        29.61S WCI  37
WINK           CLEAR     58  21  24 W22G29    29.67R
$$
...OTHER STATIONS IN TEXAS...

CITY           SKY/WX    TMP DP  RH WIND       PRES   REMARKS
ABILENE        CLEAR     50  45  83 SW10      29.60F
AMARILLO       CLEAR     52  23  32 W18G26    29.50R
AUSTIN         PTCLDY    54  54 100 W10       29.67R
BROWNSVILLE    FOG       56  56 100 SW3       29.78R VSB 1/4
CORPUS CHRISTI FOG       58  57  97 SW13      29.74S VSB 1/8
DALLAS FTW     PTCLDY    51  51 100 S8        29.58F
DEL RIO        CLEAR     45  44  97 CALM      29.71R
EL PASO        PTCLDY    49  22  34 SE9       29.87R
HOUSTON INT    CLOUDY    62  61  96 W5        29.65F
LUBBOCK        PTCLDY    53  22  29 W20G29    29.57R
SAN ANGELO     CLEAR     49  40  71 SW7       29.65R
SAN ANTONIO    PTCLDY    54  50  86 NW5       29.71S
WACO           CLEAR     53  52  96 SW8       29.63R
WICHITA FALLS  NOT AVBL
$$
...OTHER LOCATIONS IN NEW MEXICO...

CITY           SKY/WX    TMP DP  RH WIND       PRES   REMARKS
ALAMAGORDO     CLEAR     39  18  41 MISG      29.84R
ALBUQUERQUE    PTCLDY    44  21  40 W18       29.81R WCI  36
CANNON AFB     CLEAR     54  19  26 W21G26    29.68F
CLOVIS         CLEAR     46  19  34 W22G28    29.61F WCI  38
HOLLOMAN AFB   PTCLDY    42  18  38 SE9       29.83R WCI  36
ROSWELL        CLEAR     36  24  62 S5        29.68F WCI  32
RUIDOSO        CLEAR     41  14  33 W15G26    29.82R WCI  33
SANTA FE       PTCLDY    35  16  45 VRB5      29.77R WCI  31
TRUTH OR CONSE CLEAR     41  18  39 CALM      29.84R
TUCUMCARI        N/A     47  22  37 W20       29.57F WCI  40
$$

USA.gov is the U.S. government's official web portal to all federal, state and local government web resources and services.